AirNav   Everest Fuels
 
 939 users online  

1AR2 Taylor Airstrip
Des Arc, Arkansas, USA

GOING TO DES ARC?


FAA INFORMATION EFFECTIVE 25 MARCH 2021

Location

FAA Identifier: 1AR2
Lat/Long: 34-59-12.4200N 091-33-01.0800W
34-59.207000N 091-33.018000W
34.9867833,-91.5503000
(estimated)
Elevation: 208 ft. / 63 m (estimated)
Variation: 02E (1995)
From city: 2 miles W of DES ARC, AR
Time zone: UTC -5 (UTC -6 during Standard Time)
Zip code: 72040

Airport Operations

Airport use: Private use. Permission required prior to landing
Activation date: 10/1996
Control tower: no
ARTCC: MEMPHIS CENTER
FSS: JONESBORO FLIGHT SERVICE STATION
Attendance: MON-SAT 0800-1700
Segmented circle: no

Airport Communications

WX AWOS-2 at 4M3 (13 nm SW): 119.275 (870-552-1445)
WX AWOS-3PT at SRC (16 nm NW): 128.325 (501-268-4280)

Nearby radio navigation aids

VOR radial/distance  VOR name  Freq  Var
LITr054/36.2LITTLE ROCK VORTAC113.9005E

 
NDB name  Hdg/Dist  Freq  Var  ID
CERCY126/13.237502EDS -.. ...
TONEYVILLE084/23.229001ETYV - -.-- ...-

Airport Services

Runway Information

Runway 9/27

Dimensions: 2640 x 200 ft. / 805 x 61 m
Surface: turf
RUNWAY 9  RUNWAY 27
Traffic pattern: leftleft
Obstructions: 35 ft. plines, 1320 ft. from runway35 ft. pline, 15 ft. from runway

Airport Ownership and Management from official FAA records

Ownership: Privately-owned
Owner: STEVEN TAYLOR
12244 WILLIE B ROAD
DES ARC, AR 72040
Phone (501) 516-5874
Manager: STEVEN TAYLOR
12244 WILLIE B ROAD
DES ARC, AR 72040
Phone 501-516-5874

Airport Operational Statistics

Aircraft based on the field: 4
Single engine airplanes: 3
Multi engine airplanes: 1
    

Additional Remarks

FOR CD CTC LITTLE ROCK APCH 501-379-2908 OR LITTLE ROCK ATCT 501-379-2911.

Instrument Procedures

There are no published instrument procedures at 1AR2.

Some nearby airports with instrument procedures:

4M3 - Carlisle Municipal Airport (13 nm SW)
KSRC - Searcy Municipal Airport (16 nm NW)
M36 - Frank Federer Memorial Airport (19 nm E)
M60 - Woodruff County Airport (22 nm NE)
KSGT - Stuttgart Municipal Airport / Carl Humphrey Field (23 nm S)
 
Loc | Ops | Rwys | IFR | FBO | Links
Com | Nav | Svcs | Stats | Notes
Area around 1AR2 (Taylor Airstrip)
 
Road maps at: MapQuest Bing Google
 
Aerial photo
No photo
 
Sectional chart

 
Airport distance calculator
Flying to Taylor Airstrip? Find the distance to fly.

From to 1AR2

Sunrise and sunset
Times for 21-Apr-2021
 Local
(UTC-5)
 Zulu
(UTC)
Morning civil twilight06:0111:01
Sunrise06:2811:28
Sunset19:4200:42
Evening civil twilight20:0901:09

Current date and time
Zulu (UTC)  21-Apr-2021 12:09:50
Local (UTC-5)  21-Apr-2021 07:09:50
 
METAR
KSRC 
18nm NW 
211156Z AUTO 00000KT 10SM CLR M01/M01 A3031 RMK AO2 SLP264 T10111011 10022 21022 53010 FZRANO
KSGT 
23nm S 
211156Z AUTO 35004KT 10SM CLR 02/01 A3031 RMK AO2 SLP265 6//// 7//// T00170006 10050 20017 51014 FZRANO PNO $
KLRF 
30nm W 
211156Z AUTO 31003KT 10SM CLR 01/M01 A3030 RMK AO2 SLP265 T00051014 10025 20005 52009 $
KORK 
36nm W 
211155Z AUTO 31006KT 10SM CLR 00/M02 A3028 RMK AO2
TAF
KLRF 
30nm W 
210700Z 2107/2213 34009KT 9999 FEW030 510404 QNH3026INS BECMG 2116/2117 32010G15KT 9999 FEW150 QNH3017INS BECMG 2200/2201 VRB06KT 9999 SKC QNH3016INS TX17/2122Z TN01/2112Z
KLIT 
37nm SW 
210520Z 2106/2206 32007KT P6SM FEW070 FM211100 VRB04KT P6SM FEW250 FM211800 31007KT P6SM SCT250
NOTAMs
Click for the latest NOTAMs
NOTAMs are issued by the DoD/FAA and will open in a separate window not controlled by AirNav.

 

 
 

Would you like to see your business listed on this page?

 If your business provides an interesting product or service to pilots, flight crews, aircraft, or users of the Taylor Airstrip, you should consider listing it here.  To start the listing process, click on the button below
 
Add a business
 

Other Pages about Taylor Airstrip

Update a link
 
Copyright © AirNav, LLC. All rights reserved. Privacy Policy  Contact